"Pseudo-MPEC" for P10OSDn

Created 2019 Jun 18 19:07:39 UT using Find_Orb

Click here for an explanation of pseudo-MPECs

 
 Astrometry: 
     P10OSDn  C2019 05 30ykM`O:j=#ZByJy99!/rf/;#76A*ff)29i;.4XeHUlG1p!K/VZ\CCF51
     P10OSDn  C2019 05 30Q4hA.aHt!k5cYnN(#t)4k*_Tas6^=B^Q0YJrArmv=(_wPg%Sbh-mF51
     P10OSDn  C2019 05 30M;.G,FN^I8=s0^EWZc:s`ja?DW'fNmY6n?\fmt6_Astrometry8/F51
     P10OSDn  C2019 06 01JPU'erA8XfSwd0X*Naw.wlM4Xu.H42^QA@p9;.q'bHkrZu!AMcssF52
     P10OSDn  C2019 06 016-+eoTp@8!aXKtYq!usGHSvIO#2Hv/\B$jBN04)qmTqghBBcoC1tF52
     P10OSDn  C2019 06 014QwFyN#.0EgAo0Uy[HSRiAN2_wUpyO_Q'+*Ubme-Z?NOO^(0,\PWF52
     P10OSDn  C2019 06 01DbAqg@!Lq(1V7tIV[)ud2$H;4.Q*^.(FK#rlCMo/)KF#t9Ww#C!KF52
     P10OSDn  C2019 06 02^iY5MxU#26oU=3$Lp)rNWNg4KjXopoN`vF^+e;=U0MswQym[rAlFF51
     P10OSDn  C2019 06 02.'LR9RGcPIxva^;!qfNDcZCWooRa;hBm[toEPEHOA03]fh.S=RpQF51
     P10OSDn  C2019 06 02OMFEZ-;uP]h11]0b\Yk$CXacFIp=!gn*nnONDIredacted;R'l=mF51
     P10OSDn  C2019 06 08)NUfaj^X+GX.Pc+xmSmw(IAQ!#wrJ'%G;YkykPG#^?SG$,nWyk_HF52
     P10OSDn  C2019 06 09gk#DBOn#PMJk,oclickkwEl)e.*i:yFmD`o1+LUM!IQ+vUQ\Kv3pF51
     P10OSDn  C2019 06 09hhTSv8vjkv76\,!A21I3Zs1/JmZF[+hI9uyQqiwGZ3^@h%RyNe4(F51
     P10OSDn  C2019 06 09^E8blL.MWPPpKOvrSDRf(rT-J.6jB(gVE3)S;:*ke/AA,9tPF:XHF51
     P10OSDn  C2019 06 09?CVUgxheretI?*nSgn(`9GoZh!NbQtclJ)i[^0YXZy=(,*^T2DmYF51
     P10OSDn pC2019 06 10:(Go0c!^?d*Dmt%,^8r7[!wf_Qx^y2x[3mkwHOp33:ZasfF2+#fsL01
     P10OSDn KC2019 06 10!R3,+q+=I@Pp1'?:RRNFfi@S5,^./$[dWnK?0YhQc9bEXWwd_wPNL01
     P10OSDn pC2019 06 10=]#uLg-Q1VVMug`#WZHikySPw]YnAwL#9p0D'@!TBnZ`rkt@ZftgL01
     P10OSDn IC2019 06 10KJOsELforE)^2:]n48HPZ=d@iU:/iZ]VQ.[(-Mv6fc*#W?;YouP4L01
     P10OSDn KC2019 06 10;?i/OYjfiAuJ!#+.*[EJDOM!Hh[c1,XQOBZbfFR-uVbxaq]CaAE5H21
     P10OSDn KC2019 06 10CnWXfACrSt!u.da/H*L1]4(t1x[RwpOkNa1I+]Y_xhI9Q?b[kMYUH21
     P10OSDn KC2019 06 108D-NQ*DPLh;uMyR,^*NaC%Z_a%2Y_gL)NZ3x;cK]explanation$H21

Station data:
(F51) Pan-STARRS 1, Haleakala  (N20.707235 W156.255910)  US/Hawaii.
   Observers N. Primak, A. Schultz, S. Watters, J. Thiel, T. Goggia. Measurer
   PS1 Science Consortium. 1.8-m Ritchey-Chrétien + CCD.
(F52) Pan-STARRS 2, Haleakala  (N20.707384 W156.255910)  US/Hawaii. 1.8-m
   Ritchey-Chrétien + CCD.
(H21) Astronomical Research Observatory, Westfield  (N39.483057 W87.968270)
   US/Illinois. 0.76-m f/3.0 astrograph + CCD.
(L01) Višnjan Observatory, Tičan  (N45.290900 E13.749300)  Croatia.
   Observers K. Korlević, E. Pettarin. Measurer E. Pettarin. 1.0-m f/2.9
   reflector + CCD.

Orbital elements:  P10OSDn
   Perihelion 2019 Jun 21.105680 +/- 0.0391 TT =  2:32:10 (JD 2458655.605680)
Epoch 2019 Jun 10.0 TT = JDT 2458644.5   Earth MOID: 0.1231   AutoNEOCP
M 353.47130850 +/- 0.038            (J2000 ecliptic)
n   0.58786960 +/- 0.00143          Peri.   19.21651 +/- 0.035
a   1.41128712 +/- 0.00229          Node   247.53079 +/- 0.0028
e   0.2008164 +/- 0.00106           Incl.   21.32066 +/- 0.056
P   1.68/612.37d           H 24.5   G  0.15   U  8.3  
q 1.12787749 +/- 0.000339    Q 1.69469675 +/- 0.00426
From 22 observations 2019 May 30-June 10; mean residual 0".36
Residuals in arcseconds: 
190530 F51  .06+  .23-    190602 F51  .01-  .08-    190610 L01  .25+  .68-    
190530 F51  .16+  .03+    190602 F51  .06-  .16-    190610 L01  .18+  1.1-    
190530 F51  .00   .36-    190608 F52  .03-  .83-    190610 L01  .29+  .70+    
190601 F52  .02+  .23+    190609 F51  .21-  .10+    190610 H21  .13-  .36+    
190601 F52  .14-  .14+    190609 F51  .03-  .58+    190610 H21  .09-  .53+    
190601 F52  .14+  .56+    190609 F51  .08+  .26+    190610 H21  .01-  .34+    
190601 F52  .11-  .41+    190609 F51  .11-  .54+    
190602 F51  .12-  .15-    190610 L01  .06-  .68-    

Ephemerides (geocentric):
Date (UTC) HH   RA              Dec         delta   r     elong  mag " sig PA
---- -- -- --  -------------   -----------  ------ ------ -----  --- ---- ---
2019 06 18 19  16 09 50.832   +24 18 18.87  .17273 1.1280 126.8 22.7 2.04 131
2019 06 18 20  16 09 54.241   +24 21 42.84  .17292 1.1280 126.7 22.7 2.05 131
2019 06 18 21  16 09 57.650   +24 25 06.25  .17310 1.1280 126.7 22.7 2.06 131
2019 06 18 22  16 10 01.060   +24 28 29.10  .17329 1.1280 126.6 22.7 2.07 131
2019 06 18 23  16 10 04.469   +24 31 51.40  .17348 1.1280 126.5 22.7 2.09 131
2019 06 19 00  16 10 07.878   +24 35 13.14  .17367 1.1280 126.5 22.7 2.10 131
2019 06 19 01  16 10 11.286   +24 38 34.33  .17386 1.1280 126.4 22.7 2.11 131
2019 06 19 02  16 10 14.695   +24 41 54.97  .17405 1.1280 126.4 22.7 2.12 131
2019 06 19 03  16 10 18.104   +24 45 15.06  .17424 1.1280 126.3 22.7 2.13 131
2019 06 19 04  16 10 21.513   +24 48 34.60  .17442 1.1280 126.2 22.7 2.14 132
2019 06 19 05  16 10 24.921   +24 51 53.59  .17461 1.1280 126.2 22.7 2.16 132
2019 06 19 06  16 10 28.330   +24 55 12.04  .17480 1.1280 126.1 22.7 2.17 132
2019 06 19 07  16 10 31.738   +24 58 29.94  .17499 1.1280 126.0 22.7 2.18 132
2019 06 19 08  16 10 35.146   +25 01 47.30  .17518 1.1279 126.0 22.7 2.19 132
2019 06 19 09  16 10 38.555   +25 05 04.11  .17537 1.1279 125.9 22.7 2.20 132
2019 06 19 10  16 10 41.963   +25 08 20.38  .17556 1.1279 125.9 22.7 2.21 132
2019 06 19 11  16 10 45.371   +25 11 36.12  .17575 1.1279 125.8 22.7 2.23 132
2019 06 19 12  16 10 48.779   +25 14 51.31  .17594 1.1279 125.7 22.7 2.24 132
2019 06 19 13  16 10 52.187   +25 18 05.96  .17613 1.1279 125.7 22.7 2.25 132
2019 06 19 14  16 10 55.595   +25 21 20.08  .17633 1.1279 125.6 22.7 2.26 132
2019 06 19 15  16 10 59.003   +25 24 33.67  .17652 1.1279 125.6 22.7 2.27 132
2019 06 19 16  16 11 02.410   +25 27 46.72  .17671 1.1279 125.5 22.7 2.28 132
2019 06 19 17  16 11 05.818   +25 30 59.23  .17690 1.1279 125.4 22.7 2.30 132
2019 06 19 18  16 11 09.226   +25 34 11.22  .17709 1.1279 125.4 22.7 2.31 132
2019 06 19 19  16 11 12.633   +25 37 22.68  .17728 1.1279 125.3 22.7 2.32 132
2019 06 19 20  16 11 16.041   +25 40 33.60  .17747 1.1279 125.3 22.8 2.33 132
2019 06 19 21  16 11 19.448   +25 43 44.00  .17767 1.1279 125.2 22.8 2.34 132
2019 06 19 22  16 11 22.855   +25 46 53.88  .17786 1.1279 125.1 22.8 2.35 132
2019 06 19 23  16 11 26.263   +25 50 03.22  .17805 1.1279 125.1 22.8 2.37 132
2019 06 20 00  16 11 29.670   +25 53 12.05  .17824 1.1279 125.0 22.8 2.38 132
2019 06 20 01  16 11 33.077   +25 56 20.35  .17844 1.1279 125.0 22.8 2.39 132
2019 06 20 02  16 11 36.484   +25 59 28.13  .17863 1.1279 124.9 22.8 2.40 132
2019 06 20 03  16 11 39.891   +26 02 35.39  .17882 1.1279 124.8 22.8 2.41 132
2019 06 20 04  16 11 43.298   +26 05 42.13  .17902 1.1279 124.8 22.8 2.42 132
2019 06 20 05  16 11 46.705   +26 08 48.35  .17921 1.1279 124.7 22.8 2.44 132
2019 06 20 06  16 11 50.112   +26 11 54.06  .17940 1.1279 124.7 22.8 2.45 132
2019 06 20 07  16 11 53.519   +26 14 59.25  .17960 1.1279 124.6 22.8 2.46 132
2019 06 20 08  16 11 56.925   +26 18 03.93  .17979 1.1279 124.6 22.8 2.47 133
2019 06 20 09  16 12 00.332   +26 21 08.09  .17999 1.1279 124.5 22.8 2.48 133
2019 06 20 10  16 12 03.739   +26 24 11.75  .18018 1.1279 124.4 22.8 2.49 133
2019 06 20 11  16 12 07.145   +26 27 14.89  .18037 1.1279 124.4 22.8 2.51 133
2019 06 20 12  16 12 10.552   +26 30 17.53  .18057 1.1279 124.3 22.8 2.52 133
2019 06 20 13  16 12 13.958   +26 33 19.65  .18076 1.1279 124.3 22.8 2.53 133
2019 06 20 14  16 12 17.365   +26 36 21.27  .18096 1.1279 124.2 22.8 2.54 133
2019 06 20 15  16 12 20.771   +26 39 22.39  .18115 1.1279 124.2 22.8 2.55 133
2019 06 20 16  16 12 24.178   +26 42 23.00  .18135 1.1279 124.1 22.8 2.56 133
2019 06 20 17  16 12 27.584   +26 45 23.11  .18155 1.1279 124.0 22.8 2.58 133
2019 06 20 18  16 12 30.990   +26 48 22.71  .18174 1.1279 124.0 22.8 2.59 133